This is the latest recevied weather packets stored in our database for station/object W7TRD. If no packets are shown the sender has not sent any weather packets the latest 10 day(s).
| Time | Temp. | Humidity | Pressure | Rain* | Wind** | Luminosity | Snow |
|---|---|---|---|---|---|---|---|
| 1777597299 | 28.33° C | 29% | 1014.9 hPa | 0 mm | - | 208 W/m² | - |
| 1777596995 | 28.89° C | 29% | 1015 hPa | 0 mm | - | 220 W/m² | - |
| 1777596692 | 28.89° C | 30% | 1015.1 hPa | 0 mm | - | 234 W/m² | - |
| 1777596389 | 28.33° C | 28% | 1015.1 hPa | 0 mm | - | 248 W/m² | - |
| 1777596086 | 28.33° C | 29% | 1015.1 hPa | 0 mm | - | 264 W/m² | - |
| 1777595781 | 28.89° C | 29% | 1015.1 hPa | 0 mm | - | 275 W/m² | - |
| 1777595477 | 28.33° C | 29% | 1015.2 hPa | 0 mm | - | 292 W/m² | - |
| 1777595174 | 28.33° C | 30% | 1015.2 hPa | 0 mm | - | 304 W/m² | - |
| 1777594870 | 27.78° C | 30% | 1015.3 hPa | 0 mm | - | 323 W/m² | - |
| 1777594566 | 28.89° C | 28% | 1015.3 hPa | 0 mm | - | 336 W/m² | - |
| 1777594262 | 28.89° C | 27% | 1015.2 hPa | 0 mm | - | 351 W/m² | - |
| 1777593958 | 27.78° C | 29% | 1015.3 hPa | 0 mm | - | 364 W/m² | - |
| 1777593655 | 28.33° C | 28% | 1015.4 hPa | 0 mm | - | 381 W/m² | - |
| 1777593350 | 28.33° C | 29% | 1015.5 hPa | 0 mm | - | 399 W/m² | - |
| 1777593050 | 28.33° C | 27% | 1015.4 hPa | 0 mm | - | 413 W/m² | - |
| 1777592749 | 28.89° C | 29% | 1015.5 hPa | 0 mm | - | 431 W/m² | - |
| 1777592445 | 28.33° C | 30% | 1015.8 hPa | 0 mm | - | 447 W/m² | - |
| 1777592140 | 28.33° C | 30% | 1015.6 hPa | 0 mm | - | 457 W/m² | - |
| 1777591838 | 29.44° C | 30% | 1015.8 hPa | 0 mm | - | 457 W/m² | - |
| 1777591534 | 28.89° C | 30% | 1016.1 hPa | 0 mm | - | 465 W/m² | - |
| 1777591230 | 28.33° C | 31% | 1015.9 hPa | 0 mm | - | 477 W/m² | - |
| 1777590926 | 28.89° C | 30% | 1016.1 hPa | 0 mm | - | 499 W/m² | - |
| 1777590621 | 28.89° C | 29% | 1016 hPa | 0 mm | - | 506 W/m² | - |
| 1777590318 | 28.89° C | 29% | 1016.2 hPa | 0 mm | - | 526 W/m² | - |
| 1777590015 | 28.33° C | 30% | 1016.2 hPa | 0 mm | - | 544 W/m² | - |
* Rain latest hour (hover to see other rain measurements)
** Current wind speed in m/s (hover to see current wind gust speed)